Вернуться в каталог

GHGSAT-C5

АктивенНаукаSSO
NORAD 52744·PAYLOAD·🇨🇦 Canada

Запущен May 25, 2022 с Cape Canaveral Space Force Station

Loading…

Ближайшие Пролёты (ближайшие 24 часа)

TLE

СвежийSource: Space-Track

Эпоха: Sep 14, 2026, 20:34 UTC

1 52744U 22057N   26257.85710677  .00005758  00000-0  17039-3 0  9999
2 52744  97.6812  48.6865 0007180 150.9985 209.1658 15.35301900239290

Отслеживайте GHGSAT-C5 в реальном времени с AllMySat

Download on the App Store